Погода в Хабарадуве

Шри-Ланка     6°02′20″N   80°12′57″E
темп.,
°C
ветер,
м/с
пор.,
м/с
влажн.,
%
обл.,
%
осадки,
мм/ч
давл.,
гПа
погр.,
м
24 июля, сб
сб2423:30+26зюз5984100 5.5 1011527
02:30+26з598546 3.0 1009625
05:30+26з698485 6.3 1009643
08:30+27з58866 3.4 1011716
11:30+27зюз57835 8.1 1011668
14:30+27зюз578494 4.7 1008645
17:30+27зюз578751 9.4 1009546
20:30+26зюз478847 2.4 1010454
25 июля, вс
вс2523:30+26з478665 4.6 1011514
02:30+26з478687 2.1 1009469
05:30+26з478650 4.3 1010455
08:30+27з578371 1.6 1011657
11:30+28з5775100 3.1 1011889
14:30+28з5777100 1.5 1009786
17:30+27з68807 3.1 1009832
20:30+26з698491 2.2 1011611
26 июля, пн
пн2623:30+26з6986100 5.7 1012560
02:30+26з61087100 6.5 1010595
05:30+26з6987100 13.1 1010499
08:30+26з5886100 5.1 1012528
11:30+27зсз7985100 9.8 1012745
14:30+27з8118299 4.0 1010818
17:30+27з71081100 4.4 1010941
20:30+26з71084100 2.9 1012793
27 июля, вт
вт2723:30+26з81286100 7.9 1012814
02:30+26з9128599 2.4 1010939
05:30+26зсз81384100 2.7 1010875
08:30+27зсз71283100 0.1 1011946
11:30+28зсз8127591 0.2 10101024
14:30+28зсз71177100 0.0 10081170
17:30+27зсз7108499 1.4 1009891
20:30+27з6985100 1.4 1011772
28 июля, ср
ср2823:30+27з61086100 2.2 1011812
02:30+27з71186100 2.8 1009874
05:30+26з71184100 8.1 1009684
08:30+26з71185100 6.3 1011688
11:30+27з8118296 9.7 1011868
14:30+28з7117491 1.8 10091074
17:30+26з71082100 4.0 1010750
20:30+26з71183100 3.1 1012849